THOR ABLESTAR DEB, 545

Orbit data source: Space-Track

THOR ABLESTAR DEB, 545 is space debris in LEO originally from a launch on Thu, 29 Jun 1961 UTC launched from the Air Force Eastern Test Range (AFETR). Debris objects in space refer to the collection of defunct objects orbiting the Earth. Examples of debris include non-operational satellites, rocket bodies, and fragments generated from explosions, collisions, or faulty payload assembly.

Loading next visibility...
Identifier
545, 1961-015GE
Orbit
LEO
Last TLE update
12 hours ago
Origin
Manufacturer
Unknown
Mission
Spacecraft
Bus & Motor
Unknown
Mass
Unknown
Launch date (UTC)
1961-06-29 (64 years ago)
Launch vehicle
Unknown
Launch site
Air Force Eastern Test Range (AFETR)
Object type
Payload
Rocket body
Debris
Shape & HBR
Unknown
Radar Cross Section
Small (<0.1 m²)

Expand to show TLE details & history

TLE from 12 hours ago
0 THOR ABLESTAR DEB
1 00545U 61015GE  25132.34666272  .00000480  00000-0  56315-3 0  9991
2 00545  67.2295 124.6384 0161602 348.5506  11.1905 13.70728138175349
Epoch: 2025-05-12T08:19Z
Definitive object data (Epoch: 2025-05-12T08:19:11.659Z)
Latitude
-0.00005°
Longitude
129.47874°
Altitude
882.191 km
Speed
7.47 km/s
True Right ascension
08h 18m 33s
True Declination
0° 00' 00"
Sunlit
Object was in daylight at TLE epoch
Visualization TLE readout
Latitude
-7.66275°
Longitude
125.07771°
Altitude
881.403 km
Speed
7.471 km/s
Apparent Right ascension
10h 52m 34s
Apparent Declination
-44° 00' 11"
Sunlit
Object is in daylight
Visualization observer readout
Local Sidereal Time
04:55:19
Azimuth
126.815° SE
Elevation
-26.049°
Doppler factor
1
Orbital elements
Apogee altitude
1,114.475 km
Perigee altitude
876.162 km
Semi-major axis
7,373.455 km
Eccentricity
0.0161602
Inclination
67.2295°
RAAN
124.6384°
Arg. of periapsis
348.5506°
True anomaly
11.55714°
Mean anomaly
11.1905°
Eccentric anomaly
11.37309°
Mean motion
3.42797 °/min
BSTAR
0.00056315
Orbital period
105.02 mins
Loading maneuver chart data...
Loading SW <> Apogee altitude chart data...

THOR ABLESTAR DEB Visibility forecast

Observer location: undefined°, undefined°

Span
Click to sort rows by Start time (UTC) header in descending order
Start Az.
Max El. time (UTC)
Max El. Az.
Max El.
End time (UTC)
End Az.
10 mins2025-05-13 00:11:20.551Z169.237° S2025-05-13 00:16:20.551Z104.605° ESE29.521°2025-05-13 00:21:20.551Z46.776° ENE
9 mins2025-05-13 02:00:20.551Z250.519° W2025-05-13 02:04:20.551Z315.052° NNW31.663°2025-05-13 02:09:20.551Z13.25° NNE
11 mins2025-05-13 09:23:20.551Z351.257° N2025-05-13 09:28:20.551Z61.238° ENE33.939°2025-05-13 09:34:20.551Z122.826° SE
11 mins2025-05-13 11:11:20.551Z308.983° NW2025-05-13 11:16:20.551Z243.49° WSW31.959°2025-05-13 11:22:20.551Z185.734° SSW
|